Location: Unspecified
(34.4950°S, 58.5160°W)
Time: 23:52:48
(UTC+00:00)

CORIOLIS - Pass Details

Date: 19 April 2026
Orbit: 816 x 835 km, 98.7° (Epoch: 16 May)

Event Time Altitude Azimuth Distance (km) Brightness Sun altitude
Rises 09:29:00 0° 10° (N) 3,369 7.6 -11.3°
Reaches altitude 10° 09:31:20 10° 9° (N) 2,444 6.8 -10.8°
Maximum altitude 09:36:46 76° 283° (WNW) 869 4.2 -9.7°
Drops below altitude 10° 09:42:16 10° 196° (SSW) 2,473 6.4 -8.6°
Sets 09:44:39 0° 194° (SSW) 3,412 7.1 -8.1°
